This demonstration page uses our WeatherBlox Daily Observations layout. Learn more.

Left ArrowRight Arrow

Hourly Observations for October 9, 2020

Temp ( °F °C ) Dew Point ( °F °C ) Humidity (%) Winds ( mph kmh ) Pressure ( in mb ) Visibility ( mi km ) Precip ( " mm )
12:53 am 00:53 Clear 67 19.4 44 6.7 44 44 SE 8 13 29.84 1011 10 16 0.00 0.00
1:53 am 01:53 Clear 65 18.3 44 6.7 47 47 SE 9 15 29.83 1010 10 16 0.00 0.00
2:53 am 02:53 Clear 66 18.9 44 6.7 45 45 ESE 9 15 29.81 1010 10 16 0.00 0.00
3:53 am 03:53 Clear 64 17.8 44 6.7 48 48 ESE 10 17 29.80 1009 10 16 0.00 0.00
4:53 am 04:53 Clear 64 17.8 44 6.7 48 48 ESE 9 15 29.79 1009 10 16 0.00 0.00
5:53 am 05:53 Clear 62 16.7 44 6.7 52 52 ESE 9 15 29.80 1009 10 16 0.00 0.00
6:53 am 06:53 Clear 55 12.8 43 6.1 64 64 ENE 7 11 29.83 1010 10 16 0.00 0.00
7:53 am 07:53 Sunny 59 15 43 6.1 56 56 ESE 5 7 29.84 1011 10 16 0.00 0.00
8:53 am 08:53 Sunny 64 17.8 45 7.2 50 50 SE 8 13 29.85 1011 8 13 0.00 0.00
9:53 am 09:53 Sunny 68 20 46 7.8 45 45 SSE 14 22 29.86 1011 10 16 0.00 0.00
10:53 am 10:53 Hazy 75 23.9 46 7.8 36 36 SSE 10 17 29.85 1011 4 6 0.00 0.00
11:53 am 11:53 Sunny 80 26.7 42 5.6 26 26 S 7 11 29.85 1011 10 16 0.00 0.00
12:53 pm 12:53 Sunny 85 29.4 37 2.8 18 18 NW 3 6 29.82 1010 10 16 0.00 0.00
1:53 pm 13:53 Sunny 91 32.8 35 1.7 14 14 VRB 6 9 29.79 1009 10 16 0.00 0.00
2:53 pm 14:53 Sunny 93 33.9 34 1.1 12 12 undefined N/A 29.75 1007 10 16 0.00 0.00
3:53 pm 15:53 Sunny 96 35.6 32 0 10 10 VRB 3 6 29.72 1007 10 16 0.00 0.00
4:53 pm 16:53 Sunny 96 35.6 30 -1.1 10 10 Calm 29.70 1006 10 16 0.00 0.00
5:53 pm 17:53 Sunny 96 35.6 27 -2.8 8 8 SW 8 13 29.70 1006 10 16 0.00 0.00
6:53 pm 18:53 Sunny 93 33.9 27 -2.8 9 9 SSW 5 7 29.71 1006 10 16 0.00 0.00
7:53 pm 19:53 Clear 84 28.9 26 -3.3 12 12 SSE 6 9 29.73 1007 10 16 0.00 0.00
8:53 pm 20:53 Clear 77 25 30 -1.1 18 18 SSE 10 17 29.75 1008 10 16 0.00 0.00
9:53 pm 21:53 Clear 73 22.8 30 -1.1 20 20 SSE 7 11 29.77 1008 10 16 0.00 0.00
10:53 pm 22:53 Clear 70 21.1 31 -0.6 23 23 SE 9 15 29.77 1008 10 16 0.00 0.00
11:53 pm 23:53 Clear 68 20 35 1.7 30 30 SE 8 13 29.77 1008 10 16 0.00 0.00

Powered by AerisWeather